Location: Artiguedieu
(43.5000°N, 0.5454°E)
Time: 11:32:00
(UTC+00:00)

COSMOS 2455 - Pass Details

Date: 06 December 2020
Orbit: 900 x 909 km, 67.1° (Epoch: 28 January)

Event Time Altitude Azimuth Distance (km) Brightness Sun altitude
Exits shadow 06:32:35 - 278° (W) 2,743 4.7 -7.9°
Reaches altitude 10° 06:33:13 10° 283° (WNW) 2,593 4.6 -7.8°
Maximum altitude 06:37:08 18° 324° (NW) 2,103 4.3 -7.1°
Drops below altitude 10° 06:41:05 10° 5° (N) 2,602 5.1 -6.5°
Sets 06:44:33 0° 25° (NNE) 3,548 5.9 -5.9°
